Location: Four Corners
(38.2757°N, 122.4608°W)
Time: 16:36:42
(UTC+00:00)

Cosmos 614 Rocket - Pass Details

Date: 08 December 2019
Orbit: 733 x 764 km, 74.1° (Epoch: 27 January)

Event Time Altitude Azimuth Distance (km) Brightness Sun altitude
Rises 02:09:45 0° 175° (S) 3,170 7.4 -15.4°
Reaches altitude 10° 02:12:15 10° 167° (SSE) 2,246 6.5 -15.8°
Maximum altitude 02:16:52 37° 101° (ESE) 1,148 4.5 -16.7°
Enters shadow 02:18:31 29° 63° (ENE) 1,337 4.7 -17.0°
